Regional Weather Roundup
Issued by NWS

Home | Current Version | Previous Version | Text Only | Print | Product List | Glossary On
Versions: 1 2 3 4 5 6 7 8 9 10 11 12 13 14 15 16 17 18 19 20 21 22 23 24 25 26 27 28 29 30 31 32 33 34 35 36 37 38 39 40 41 42 43 44 45 46 47 48 49 50
000
ASUS43 KTOP 012208
RWRKS

WEATHER ROUNDUP FOR KANSAS
NATIONAL WEATHER SERVICE GOODLAND KS
500 PM CDT SAT AUG 01 2015

NOTE:  "FAIR" INDICATES FEW OR NO CLOUDS BELOW 12,000 FEET WITH NO
SIGNIFICANT WEATHER AND/OR OBSTRUCTIONS TO VISIBILITY.

KSZ001>006-013>018-027>032-041>047-012300-
NORTHWEST KANSAS

CITY           SKY/WX    TMP DP  RH WIND       PRES   REMARKS
GOODLAND       SUNNY     89  50  26 SE14G28   30.04F
HAYS           SUNNY     93  61  33 SE12G17   29.98F
HILL CITY      SUNNY     93  58  30 S12G18    29.99F
RUSSELL        SUNNY     93  59  31 S9        29.97F
$$

KSZ061>065-074>080-084>089-012300-
SOUTHWEST KANSAS

CITY           SKY/WX    TMP DP  RH WIND       PRES   REMARKS
DODGE CITY     MOSUNNY   89  62  40 SE8       30.02F
ELKHART          N/A     87  67  51 SE13        N/A
GARDEN CITY    PTSUNNY   89  62  40 SE12      30.01F
GREAT BEND     SUNNY     91  63  38 SE13G18   29.98F
LIBERAL        SUNNY     90  66  45 S12       30.01F
PRATT          MOSUNNY   88  63  42 S9        30.02F
$$

KSZ066>073-081>083-090>101-012300-
SOUTHEAST KANSAS

CITY           SKY/WX    TMP DP  RH WIND       PRES   REMARKS
CHANUTE        SUNNY     92  67  43 S6        29.99F HX  95
COFFEYVILLE    PTSUNNY   92  69  47 S9        29.98F HX  97
HUTCHINSON     SUNNY     91  68  46 S13       29.99F HX  95
MEDICINE LODGE   N/A     89  68  49 S9        29.97F
NEWTON         MOSUNNY   90  68  48 S10       30.02F
PARSONS        PTSUNNY   91  71  51 VRB5      30.00F HX  97
WICHITA INTL   MOSUNNY   90  70  51 S9        29.98F HX  95
WICHITA JABRA  SUNNY     90  69  50 S10       29.98F
WICHITA MCCONL SUNNY     89  69  51 S7        29.99F
WINFIELD       MOSUNNY   90  71  53 S7        29.99F HX  96
$$

KSZ007>012-019>026-033>040-048>060-102>105-012300-
NORTHEAST KANSAS

CITY           SKY/WX    TMP DP  RH WIND       PRES   REMARKS
CONCORDIA      MOSUNNY   89  65  44 SW3       29.97F
EMPORIA        MOSUNNY   91  66  43 CALM      29.98F
LAWRENCE       SUNNY     91  65  41 CALM      29.97F
MANHATTAN      SUNNY     94  67  41 VRB7      29.96F HX  97
MARYSVILLE     SUNNY     91  68  46 SW6       29.97F HX  95
OLATHE IND     SUNNY     92  65  40 S10       29.99F
OLATHE EXE     MOSUNNY   90  68  48 S5        29.98F
SALINA         SUNNY     95  62  33 SE12      29.96F HX  96
TOPEKA BILLARD MOSUNNY   91  67  44 SW5       29.96F
TOPEKA FORBES  SUNNY     94  66  39 VRB3      29.98F HX  97
$$



USA.gov is the U.S. government's official web portal to all federal, state and local government web resources and services.